< < Back
Terminal Aerodrome Forecast


Current Version              Previous Versions:   1  2  3  4  5  6  7  8  9  

Terminal Aerodrome Forecast

133
FTUS42 KFFC 181122
TAFCSG
TAF
KCSG 181122Z 1812/1912 32003KT P6SM SCT150 BKN250
     FM181800 31005KT P6SM BKN060
     FM190100 34005KT P6SM SCT080 BKN150
     FM190900 01003KT P6SM SCT150=

Latest METAR

006
SAUS70 KWBC 181300 RRA
MTRCSG
METAR KCSG 181251Z AUTO 31005KT 10SM CLR 04/02 A3019 RMK AO2 SLP224
T00390017


USA.gov is the U.S. government's official web portal to all federal, state and local government web resources and services.